Zurück zum Katalog

CZ-6A DEB

AktivPO
NORAD 64662·DEBRIS·🇨🇳 China

Gestartet Aug 6, 2024 von Taiyuan Satellite Launch Center

Loading…

Nächste Überflüge (nächste 24 Stunden)

TLE

AktuellSource: Space-Track

Epoche: Sep 14, 2026, 00:10 UTC

1 64662U 24140AFC 26257.00711980  .00000287  00000-0  12713-3 0  9997
2 64662  88.9929 264.4642 0045204 282.3646  77.2487 14.20041303 97060

Verfolge CZ-6A DEB in Echtzeit mit AllMySat

Download on the App Store